Regional Weather Roundup
Issued by NWS

Home | Current Version | Previous Version | Text Only | Print | Product List | Glossary On
Versions: 1 2 3 4 5 6 7 8 9 10 11 12 13 14 15 16 17 18 19 20 21 22 23 24 25 26 27
000
ASPQ40 PGUM 232212
RWRPQ
WEATHER ROUNDUP FOR THE MARIANAS AND MICRONESIA
NATIONAL WEATHER SERVICE TIYAN GU
800 AM CHST FRI MAR 24 2017

GUZ001>004-232300-
MARIANA ISLANDS-

CITY           SKY/WX    TMP DP  RH WIND       PRES   REMARKS
GUAM AIRPORT   SUNNY     82  75  78 NE7       29.98R
ANDERSEN AFB   PTSUNNY   81  73  78 NE9       30.00R
ROTA AIRPORT   MOSUNNY   79  73  83 NE7       29.98R
TINIAN AP      MOSUNNY   81  75  83 NE6       29.96R
SAIPAN AP      CLOUDY    81  75  83 NE12      29.97R

$$

PMZ161-232300-
REPUBLIC OF PALAU-

CITY           SKY/WX    TMP DP  RH WIND       PRES   REMARKS
KOROR AP       PTSUNNY   79  75  89 NE3       29.91R
KOROR WSO      PTSUNNY   79  75  89 CALM      29.92R

$$

PMZ171>174-232300-
FEDERATED STATES OF MICRONESIA-

CITY           SKY/WX    TMP DP  RH WIND       PRES   REMARKS
YAP AIRPORT    PTSUNNY   81  77  89 VRB3      29.92R
CHUUK AP       CLOUDY    84  77  79 NE8       29.91R HX  94
POHNPEI AP     PTSUNNY   84  77  79 E6        29.89  HX  94
POHNPEI WSO    PTSUNNY   84  77  79 NE6       29.93R HX  94
KOSRAE AP      PTSUNNY   84  81  89 NE13      29.87R HX  98

$$

PMZ181-232300-
REPUBLIC OF THE MARSHALL ISLANDS-

CITY           SKY/WX    TMP DP  RH WIND       PRES   REMARKS
KWAJALEIN AP   MOSUNNY   86  77  74 E18       29.91R HX  97
MAJURO AP      NOT AVBL
MAJURO WSO     MOSUNNY   86  77  74 NE13      29.88S HX  97

$$





USA.gov is the U.S. government's official web portal to all federal, state and local government web resources and services.